| time (UTC) | temp F | wind direction | speed MPH | gust MPH | rain 1hr in | rain 24hr in | rain mn in | humidity % | barometer mb |
| 20260502224104 | 78 | 355 | 0.0 | 3.0 | 0.00 | 0.03 | 0.00 | 50 | 1007.8 |
| 20260502224022 | 78 | 0 | 0.0 | 0.0 | 0.00 | 0.03 | 0.00 | 50 | 1007.9 |
| 20260502223604 | 78 | 0 | 0.0 | 0.0 | 0.00 | 0.03 | 0.00 | 50 | 1007.9 |
| 20260502223106 | 78 | 0 | 1.0 | 5.0 | 0.00 | 0.03 | 0.00 | 48 | 1008.1 |
| 20260502223024 | 77 | 27 | 0.0 | 0.0 | 0.00 | 0.03 | 0.00 | 49 | 1008.1 |
| 20260502222021 | 77 | 10 | 1.0 | 3.0 | 0.00 | 0.03 | 0.00 | 49 | 1008.4 |
| 20260502221605 | 77 | 10 | 1.0 | 3.0 | 0.00 | 0.03 | 0.00 | 49 | 1008.4 |
| 20260502221106 | 77 | 0 | 1.0 | 3.0 | 0.00 | 0.03 | 0.00 | 49 | 1008.4 |
| 20260502221022 | 77 | 0 | 1.0 | 3.0 | 0.00 | 0.03 | 0.00 | 48 | 1008.5 |
| 20260502220604 | 77 | 0 | 1.0 | 3.0 | 0.00 | 0.03 | 0.00 | 48 | 1008.5 |
| 20260502220104 | 77 | 4 | 2.0 | 5.0 | 0.00 | 0.03 | 0.00 | 51 | 1008.5 |
| 20260502220023 | 76 | 0 | 0.0 | 5.0 | 0.00 | 0.03 | 0.00 | 58 | 1008.6 |
| 20260502215105 | 76 | 21 | 1.0 | 6.0 | 0.00 | 0.03 | 0.00 | 52 | 1008.7 |
| 20260502215022 | 76 | 261 | 1.0 | 3.0 | 0.00 | 0.03 | 0.00 | 50 | 1008.7 |
| 20260502214104 | 76 | 294 | 0.0 | 3.0 | 0.00 | 0.03 | 0.00 | 50 | 1008.8 |
| 20260502214022 | 76 | 288 | 0.0 | 5.0 | 0.00 | 0.03 | 0.00 | 51 | 1008.8 |
| 20260502213605 | 76 | 288 | 0.0 | 5.0 | 0.00 | 0.03 | 0.00 | 51 | 1008.8 |
| 20260502213105 | 76 | 284 | 0.0 | 3.0 | 0.00 | 0.03 | 0.00 | 53 | 1008.9 |
| 20260502213023 | 74 | 281 | 0.0 | 0.0 | 0.00 | 0.03 | 0.00 | 55 | 1009.1 |
| 20260502212604 | 74 | 281 | 0.0 | 0.0 | 0.00 | 0.03 | 0.00 | 55 | 1009.1 |
| 20260502212104 | 75 | 282 | 0.0 | 2.0 | 0.00 | 0.03 | 0.00 | 55 | 1009.1 |
| 20260502212022 | 74 | 279 | 2.0 | 3.0 | 0.00 | 0.03 | 0.00 | 57 | 1009.2 |
| 20260502211105 | 73 | 265 | 0.0 | 0.0 | 0.00 | 0.03 | 0.00 | 58 | 1009.3 |
| 20260502211022 | 73 | 264 | 0.0 | 2.0 | 0.00 | 0.03 | 0.00 | 59 | 1009.4 |
| 20260502210604 | 73 | 264 | 0.0 | 2.0 | 0.00 | 0.03 | 0.00 | 59 | 1009.4 |
| 20260502210105 | 72 | 266 | 0.0 | 3.0 | 0.00 | 0.03 | 0.00 | 55 | 1009.6 |
| 20260502210023 | 73 | 339 | 2.0 | 3.0 | 0.00 | 0.03 | 0.00 | 56 | 1009.6 |
| 20260502205605 | 73 | 339 | 2.0 | 3.0 | 0.00 | 0.03 | 0.00 | 56 | 1009.6 |
| 20260502205104 | 71 | 325 | 0.0 | 1.0 | 0.00 | 0.03 | 0.00 | 59 | 1009.6 |
| 20260502205021 | 71 | 325 | 2.0 | 5.0 | 0.00 | 0.03 | 0.00 | 60 | 1009.6 |
| 20260502204605 | 71 | 325 | 2.0 | 5.0 | 0.00 | 0.03 | 0.00 | 60 | 1009.6 |
| 20260502204104 | 71 | 313 | 2.0 | 3.0 | 0.00 | 0.03 | 0.00 | 65 | 1009.7 |
| 20260502204022 | 70 | 306 | 1.0 | 3.0 | 0.00 | 0.03 | 0.00 | 61 | 1009.8 |
| 20260502203606 | 70 | 306 | 1.0 | 3.0 | 0.00 | 0.03 | 0.00 | 61 | 1009.8 |
| 20260502203105 | 70 | 331 | 0.0 | 0.0 | 0.00 | 0.03 | 0.00 | 63 | 1009.9 |
| 20260502203023 | 70 | 334 | 0.0 | 3.0 | 0.00 | 0.03 | 0.00 | 62 | 1009.9 |
| 20260502202606 | 70 | 334 | 0.0 | 3.0 | 0.00 | 0.03 | 0.00 | 62 | 1009.9 |
| 20260502202104 | 70 | 346 | 2.0 | 5.0 | 0.00 | 0.03 | 0.00 | 60 | 1009.9 |
| 20260502202022 | 70 | 343 | 3.0 | 6.0 | 0.00 | 0.03 | 0.00 | 62 | 1010.0 |
| 20260502201105 | 70 | 305 | 0.0 | 3.0 | 0.00 | 0.03 | 0.00 | 64 | 1010.0 |
| 20260502201022 | 69 | 253 | 0.0 | 3.0 | 0.00 | 0.03 | 0.00 | 63 | 1010.1 |
| 20260502200606 | 69 | 253 | 0.0 | 3.0 | 0.00 | 0.03 | 0.00 | 63 | 1010.1 |
| 20260502200104 | 69 | 329 | 0.0 | 5.0 | 0.00 | 0.03 | 0.00 | 65 | 1010.1 |
| 20260502200026 | 69 | 325 | 1.0 | 5.0 | 0.00 | 0.03 | 0.00 | 65 | 1010.2 |
| 20260502195105 | 69 | 259 | 0.0 | 2.0 | 0.00 | 0.03 | 0.00 | 63 | 1010.3 |
| 20260502195021 | 69 | 255 | 2.0 | 3.0 | 0.00 | 0.03 | 0.00 | 62 | 1010.4 |
| 20260502194604 | 69 | 255 | 2.0 | 3.0 | 0.00 | 0.03 | 0.00 | 62 | 1010.4 |
| 20260502194104 | 69 | 359 | 1.0 | 8.0 | 0.00 | 0.03 | 0.00 | 63 | 1010.5 |
| 20260502194022 | 68 | 342 | 1.0 | 5.0 | 0.00 | 0.03 | 0.00 | 64 | 1010.5 |
| 20260502193605 | 68 | 342 | 1.0 | 5.0 | 0.00 | 0.03 | 0.00 | 64 | 1010.5 |
| 20260502193104 | 69 | 314 | 3.0 | 6.0 | 0.00 | 0.03 | 0.00 | 63 | 1010.6 |
| 20260502193024 | 67 | 261 | 0.0 | 2.0 | 0.00 | 0.03 | 0.00 | 67 | 1010.7 |
| 20260502192606 | 67 | 261 | 0.0 | 2.0 | 0.00 | 0.03 | 0.00 | 67 | 1010.7 |
| 20260502192105 | 67 | 260 | 2.0 | 3.0 | 0.00 | 0.03 | 0.00 | 68 | 1010.8 |
| 20260502191606 | 66 | 264 | 2.0 | 6.0 | 0.00 | 0.03 | 0.00 | 69 | 1010.9 |
| 20260502191104 | 66 | 254 | 1.0 | 3.0 | 0.00 | 0.03 | 0.00 | 71 | 1011.0 |
| 20260502190604 | 65 | 265 | 0.0 | 3.0 | 0.00 | 0.03 | 0.00 | 68 | 1011.1 |
| 20260502190105 | 66 | 260 | 1.0 | 6.0 | 0.00 | 0.03 | 0.00 | 68 | 1011.1 |
| 20260502190024 | 66 | 317 | 0.0 | 3.0 | 0.00 | 0.03 | 0.00 | 66 | 1011.2 |
| 20260502185604 | 66 | 317 | 0.0 | 3.0 | 0.00 | 0.03 | 0.00 | 66 | 1011.2 |
| 20260502185104 | 66 | 331 | 0.0 | 3.0 | 0.00 | 0.03 | 0.00 | 67 | 1011.3 |
| 20260502185022 | 66 | 87 | 0.0 | 3.0 | 0.00 | 0.03 | 0.00 | 68 | 1011.3 |
| 20260502184605 | 66 | 87 | 0.0 | 3.0 | 0.00 | 0.03 | 0.00 | 68 | 1011.3 |
| 20260502184022 | 66 | 132 | 1.0 | 3.0 | 0.00 | 0.03 | 0.00 | 68 | 1011.5 |
| 20260502183604 | 66 | 132 | 1.0 | 3.0 | 0.00 | 0.03 | 0.00 | 68 | 1011.5 |
| 20260502182604 | 65 | 13 | 0.0 | 3.0 | 0.00 | 0.03 | 0.00 | 68 | 1011.6 |
| 20260502182106 | 65 | 14 | 1.0 | 3.0 | 0.00 | 0.03 | 0.00 | 69 | 1011.6 |
| 20260502182021 | 64 | 30 | 2.0 | 5.0 | 0.00 | 0.03 | 0.00 | 71 | 1011.6 |
| 20260502181604 | 64 | 30 | 2.0 | 5.0 | 0.00 | 0.03 | 0.00 | 71 | 1011.6 |
| 20260502181023 | 63 | 150 | 0.0 | 0.0 | 0.00 | 0.03 | 0.00 | 79 | 1011.6 |
| 20260502180605 | 63 | 150 | 0.0 | 0.0 | 0.00 | 0.03 | 0.00 | 79 | 1011.6 |
| 20260502170104 | 59 | 140 | 0.0 | 0.0 | 0.00 | 0.03 | 0.00 | 81 | 1012.0 |
| 20260502164105 | 58 | 141 | 0.0 | 0.0 | 0.00 | 0.03 | 0.00 | 83 | 1012.0 |
| 20260502164021 | 58 | 143 | 0.0 | 0.0 | 0.00 | 0.03 | 0.00 | 84 | 1012.1 |
| 20260502163605 | 58 | 143 | 0.0 | 0.0 | 0.00 | 0.03 | 0.00 | 84 | 1012.1 |
| 20260502163106 | 58 | 143 | 0.0 | 0.0 | 0.00 | 0.03 | 0.00 | 84 | 1012.2 |
| 20260502163025 | 57 | 143 | 0.0 | 0.0 | 0.00 | 0.03 | 0.00 | 84 | 1012.2 |
| 20260502162604 | 57 | 143 | 0.0 | 0.0 | 0.00 | 0.03 | 0.00 | 84 | 1012.2 |
| 20260502162106 | 57 | 143 | 0.0 | 0.0 | 0.00 | 0.03 | 0.00 | 84 | 1012.3 |
| 20260502162021 | 57 | 143 | 0.0 | 0.0 | 0.00 | 0.03 | 0.00 | 85 | 1012.3 |
| 20260502161605 | 57 | 143 | 0.0 | 0.0 | 0.00 | 0.03 | 0.00 | 85 | 1012.3 |
| 20260502160604 | 56 | 143 | 0.0 | 0.0 | 0.00 | 0.03 | 0.00 | 87 | 1012.2 |
| 20260502160106 | 56 | 143 | 0.0 | 0.0 | 0.00 | 0.03 | 0.00 | 87 | 1012.3 |
| 20260502152104 | 54 | 154 | 0.0 | 0.0 | 0.00 | 0.03 | 0.00 | 93 | 1012.3 |
| 20260502152023 | 54 | 154 | 0.0 | 0.0 | 0.00 | 0.03 | 0.00 | 93 | 1012.3 |
| 20260502151604 | 54 | 154 | 0.0 | 0.0 | 0.00 | 0.03 | 0.00 | 93 | 1012.3 |
| 20260502151106 | 53 | 154 | 0.0 | 0.0 | 0.00 | 0.03 | 0.00 | 93 | 1012.2 |
| 20260502151022 | 53 | 154 | 0.0 | 0.0 | 0.00 | 0.03 | 0.00 | 93 | 1012.2 |
| 20260502150605 | 53 | 154 | 0.0 | 0.0 | 0.00 | 0.03 | 0.00 | 93 | 1012.2 |
| 20260502150106 | 53 | 154 | 0.0 | 0.0 | 0.00 | 0.03 | 0.00 | 93 | 1012.3 |
| 20260502140104 | 51 | 153 | 0.0 | 0.0 | 0.00 | 0.03 | 0.00 | 91 | 1012.1 |
| 20260502130604 | 51 | 153 | 0.0 | 0.0 | 0.00 | 0.03 | 0.00 | 90 | 1011.9 |
| 20260502130105 | 51 | 153 | 0.0 | 0.0 | 0.00 | 0.03 | 0.00 | 91 | 1011.9 |
| 20260502123604 | 51 | 153 | 0.0 | 0.0 | 0.00 | 0.03 | 0.00 | 90 | 1012.0 |
| 20260502123106 | 51 | 153 | 0.0 | 0.0 | 0.00 | 0.03 | 0.00 | 90 | 1012.0 |
| 20260502123022 | 51 | 153 | 0.0 | 0.0 | 0.00 | 0.03 | 0.00 | 90 | 1012.0 |
| 20260502122106 | 52 | 153 | 0.0 | 0.0 | 0.00 | 0.03 | 0.00 | 90 | 1012.0 |
| 20260502122022 | 52 | 153 | 0.0 | 0.0 | 0.00 | 0.03 | 0.00 | 90 | 1012.1 |
| 20260502121604 | 52 | 153 | 0.0 | 0.0 | 0.00 | 0.03 | 0.00 | 90 | 1012.1 |
| 20260502121106 | 52 | 153 | 0.0 | 0.0 | 0.00 | 0.03 | 0.00 | 90 | 1012.1 |
| 20260502121024 | 52 | 153 | 0.0 | 0.0 | 0.00 | 0.03 | 0.00 | 90 | 1012.0 |
| 20260502120604 | 52 | 153 | 0.0 | 0.0 | 0.00 | 0.03 | 0.00 | 90 | 1012.0 |
| 20260502120106 | 52 | 153 | 0.0 | 0.0 | 0.00 | 0.03 | 0.00 | 91 | 1012.1 |
| 20260502115604 | 52 | 153 | 0.0 | 0.0 | 0.00 | 0.03 | 0.00 | 91 | 1012.1 |
| 20260502115105 | 52 | 153 | 0.0 | 0.0 | 0.00 | 0.03 | 0.00 | 90 | 1012.1 |
| 20260502115022 | 52 | 153 | 0.0 | 0.0 | 0.00 | 0.03 | 0.00 | 90 | 1012.2 |
| 20260502114106 | 52 | 153 | 0.0 | 0.0 | 0.00 | 0.03 | 0.00 | 90 | 1012.1 |
| 20260502114022 | 52 | 153 | 0.0 | 0.0 | 0.00 | 0.03 | 0.00 | 90 | 1012.1 |
| 20260502113605 | 52 | 153 | 0.0 | 0.0 | 0.00 | 0.03 | 0.00 | 90 | 1012.1 |
| 20260502113104 | 52 | 153 | 0.0 | 0.0 | 0.00 | 0.03 | 0.00 | 90 | 1012.1 |
| 20260502113023 | 52 | 153 | 0.0 | 0.0 | 0.00 | 0.03 | 0.00 | 90 | 1012.2 |
| 20260502112604 | 52 | 153 | 0.0 | 0.0 | 0.00 | 0.03 | 0.00 | 90 | 1012.2 |
| 20260502112105 | 52 | 153 | 0.0 | 0.0 | 0.00 | 0.03 | 0.00 | 90 | 1012.2 |
| 20260502111605 | 52 | 153 | 0.0 | 0.0 | 0.00 | 0.03 | 0.00 | 90 | 1012.3 |
| 20260502111106 | 52 | 153 | 0.0 | 0.0 | 0.00 | 0.03 | 0.00 | 90 | 1012.3 |
| 20260502111022 | 52 | 153 | 0.0 | 0.0 | 0.00 | 0.03 | 0.00 | 90 | 1012.4 |
| 20260502110604 | 52 | 153 | 0.0 | 0.0 | 0.00 | 0.03 | 0.00 | 90 | 1012.4 |
| 20260502110021 | 52 | 153 | 0.0 | 0.0 | 0.00 | 0.03 | 0.00 | 90 | 1012.3 |
| 20260502105604 | 52 | 153 | 0.0 | 0.0 | 0.00 | 0.03 | 0.00 | 90 | 1012.3 |
| 20260502105105 | 52 | 153 | 0.0 | 0.0 | 0.00 | 0.03 | 0.00 | 90 | 1012.2 |
| 20260502105024 | 52 | 153 | 0.0 | 0.0 | 0.00 | 0.03 | 0.00 | 90 | 1012.2 |
| 20260502104021 | 53 | 153 | 0.0 | 0.0 | 0.00 | 0.03 | 0.00 | 89 | 1012.4 |
| 20260502103106 | 53 | 153 | 0.0 | 0.0 | 0.00 | 0.03 | 0.00 | 89 | 1012.3 |
| 20260502103021 | 53 | 153 | 0.0 | 0.0 | 0.00 | 0.03 | 0.00 | 89 | 1012.4 |
| 20260502102104 | 53 | 153 | 0.0 | 0.0 | 0.00 | 0.03 | 0.00 | 89 | 1012.4 |
| 20260502102024 | 53 | 153 | 0.0 | 0.0 | 0.00 | 0.03 | 0.00 | 89 | 1012.5 |
| 20260502101604 | 53 | 153 | 0.0 | 0.0 | 0.00 | 0.03 | 0.00 | 89 | 1012.5 |
| 20260502101104 | 53 | 153 | 0.0 | 0.0 | 0.00 | 0.03 | 0.00 | 89 | 1012.5 |
| 20260502101023 | 53 | 153 | 0.0 | 0.0 | 0.00 | 0.03 | 0.00 | 89 | 1012.5 |
| 20260502100604 | 53 | 153 | 0.0 | 0.0 | 0.00 | 0.03 | 0.00 | 89 | 1012.5 |
| 20260502100105 | 53 | 153 | 0.0 | 0.0 | 0.00 | 0.03 | 0.00 | 89 | 1012.5 |
| 20260502090605 | 54 | 153 | 0.0 | 0.0 | 0.00 | 0.03 | 0.00 | 89 | 1012.9 |
| 20260502090104 | 54 | 153 | 0.0 | 0.0 | 0.00 | 0.03 | 0.00 | 89 | 1013.0 |
| 20260502080105 | 55 | 154 | 0.0 | 0.0 | 0.00 | 0.03 | 0.00 | 88 | 1013.3 |
| 20260502071022 | 56 | 153 | 0.0 | 0.0 | 0.00 | 0.03 | 0.00 | 87 | 1013.4 |
| 20260502070605 | 56 | 153 | 0.0 | 0.0 | 0.00 | 0.03 | 0.00 | 87 | 1013.4 |
| 20260502070104 | 56 | 153 | 0.0 | 0.0 | 0.00 | 0.03 | 0.00 | 87 | 1013.3 |
| 20260502070022 | 56 | 153 | 0.0 | 0.0 | 0.00 | 0.03 | 0.03 | 87 | 1013.4 |
| 20260502065604 | 56 | 153 | 0.0 | 0.0 | 0.00 | 0.03 | 0.03 | 87 | 1013.4 |
| 20260502065106 | 57 | 153 | 0.0 | 0.0 | 0.00 | 0.03 | 0.03 | 87 | 1013.4 |
| 20260502065022 | 57 | 153 | 0.0 | 0.0 | 0.00 | 0.03 | 0.03 | 87 | 1013.3 |
| 20260502064605 | 57 | 153 | 0.0 | 0.0 | 0.00 | 0.03 | 0.03 | 87 | 1013.3 |
| 20260502064106 | 57 | 153 | 0.0 | 0.0 | 0.00 | 0.03 | 0.03 | 87 | 1013.4 |
| 20260502064021 | 57 | 153 | 0.0 | 0.0 | 0.00 | 0.03 | 0.03 | 87 | 1013.4 |
| 20260502063606 | 57 | 153 | 0.0 | 0.0 | 0.00 | 0.03 | 0.03 | 87 | 1013.4 |
| 20260502063104 | 57 | 153 | 0.0 | 0.0 | 0.00 | 0.03 | 0.03 | 87 | 1013.4 |
| 20260502062606 | 57 | 153 | 0.0 | 0.0 | 0.00 | 0.03 | 0.03 | 87 | 1013.4 |
| 20260502062105 | 57 | 153 | 0.0 | 0.0 | 0.00 | 0.03 | 0.03 | 86 | 1013.4 |
| 20260502062022 | 57 | 153 | 0.0 | 0.0 | 0.00 | 0.03 | 0.03 | 86 | 1013.5 |
| 20260502061604 | 57 | 153 | 0.0 | 0.0 | 0.00 | 0.03 | 0.03 | 86 | 1013.5 |
| 20260502061104 | 57 | 153 | 0.0 | 0.0 | 0.00 | 0.03 | 0.03 | 86 | 1013.5 |
| 20260502061021 | 57 | 153 | 0.0 | 0.0 | 0.00 | 0.03 | 0.03 | 86 | 1013.5 |
| 20260502060604 | 57 | 153 | 0.0 | 0.0 | 0.00 | 0.03 | 0.03 | 86 | 1013.5 |
| 20260502060105 | 57 | 153 | 0.0 | 0.0 | 0.00 | 0.03 | 0.03 | 86 | 1013.4 |
| 20260502055604 | 58 | 153 | 0.0 | 0.0 | 0.00 | 0.03 | 0.03 | 86 | 1013.4 |
| 20260502055104 | 58 | 153 | 0.0 | 0.0 | 0.00 | 0.03 | 0.03 | 86 | 1013.4 |
| 20260502054604 | 58 | 153 | 0.0 | 0.0 | 0.00 | 0.03 | 0.03 | 86 | 1013.3 |
| 20260502054023 | 58 | 153 | 0.0 | 0.0 | 0.00 | 0.03 | 0.03 | 86 | 1013.4 |
| 20260502053604 | 58 | 153 | 0.0 | 0.0 | 0.00 | 0.03 | 0.03 | 86 | 1013.4 |
| 20260502052604 | 58 | 153 | 0.0 | 0.0 | 0.00 | 0.03 | 0.03 | 86 | 1013.4 |
| 20260502052105 | 59 | 153 | 0.0 | 0.0 | 0.00 | 0.03 | 0.03 | 86 | 1013.5 |
| 20260502052022 | 59 | 153 | 0.0 | 0.0 | 0.00 | 0.03 | 0.03 | 86 | 1013.5 |
| 20260502051105 | 59 | 153 | 0.0 | 0.0 | 0.00 | 0.03 | 0.03 | 86 | 1013.4 |
| 20260502051022 | 59 | 153 | 0.0 | 0.0 | 0.00 | 0.03 | 0.03 | 86 | 1013.5 |
| 20260502050604 | 59 | 153 | 0.0 | 0.0 | 0.00 | 0.03 | 0.03 | 86 | 1013.5 |
| 20260502050106 | 59 | 153 | 0.0 | 0.0 | 0.00 | 0.03 | 0.03 | 86 | 1013.5 |
| 20260502050022 | 59 | 153 | 0.0 | 0.0 | 0.00 | 0.03 | 0.03 | 86 | 1013.3 |
| 20260502045104 | 59 | 153 | 0.0 | 0.0 | 0.00 | 0.03 | 0.03 | 86 | 1013.2 |
| 20260502045022 | 59 | 153 | 0.0 | 0.0 | 0.00 | 0.03 | 0.03 | 86 | 1013.3 |
| 20260502044605 | 59 | 153 | 0.0 | 0.0 | 0.00 | 0.03 | 0.03 | 86 | 1013.3 |
| 20260502044105 | 60 | 153 | 0.0 | 0.0 | 0.00 | 0.03 | 0.03 | 86 | 1013.2 |
| 20260502044025 | 60 | 153 | 0.0 | 0.0 | 0.00 | 0.03 | 0.03 | 85 | 1013.2 |
| 20260502043604 | 60 | 153 | 0.0 | 0.0 | 0.00 | 0.03 | 0.03 | 85 | 1013.2 |
| 20260502043106 | 60 | 153 | 0.0 | 0.0 | 0.00 | 0.03 | 0.03 | 85 | 1013.0 |
| 20260502043021 | 60 | 153 | 0.0 | 0.0 | 0.00 | 0.03 | 0.03 | 85 | 1013.1 |
| 20260502042604 | 60 | 153 | 0.0 | 0.0 | 0.00 | 0.03 | 0.03 | 85 | 1013.1 |
| 20260502042105 | 60 | 153 | 0.0 | 0.0 | 0.00 | 0.03 | 0.03 | 85 | 1013.0 |
| 20260502042021 | 60 | 153 | 0.0 | 0.0 | 0.00 | 0.03 | 0.03 | 85 | 1013.1 |
| 20260502041605 | 60 | 153 | 0.0 | 0.0 | 0.00 | 0.03 | 0.03 | 85 | 1013.1 |
| 20260502041104 | 61 | 153 | 0.0 | 0.0 | 0.00 | 0.03 | 0.03 | 85 | 1013.0 |
| 20260502041024 | 61 | 153 | 0.0 | 0.0 | 0.00 | 0.03 | 0.03 | 85 | 1012.9 |
| 20260502040604 | 61 | 153 | 0.0 | 0.0 | 0.00 | 0.03 | 0.03 | 85 | 1012.9 |
| 20260502040104 | 61 | 153 | 0.0 | 0.0 | 0.00 | 0.03 | 0.03 | 84 | 1012.9 |
| 20260502035606 | 61 | 153 | 0.0 | 0.0 | 0.01 | 0.03 | 0.03 | 84 | 1012.8 |
| 20260502035104 | 62 | 153 | 0.0 | 0.0 | 0.02 | 0.03 | 0.03 | 83 | 1012.7 |
| 20260502035021 | 62 | 153 | 0.0 | 0.0 | 0.03 | 0.03 | 0.03 | 83 | 1012.7 |
| 20260502034606 | 62 | 153 | 0.0 | 0.0 | 0.03 | 0.03 | 0.03 | 83 | 1012.7 |
| 20260502034021 | 62 | 153 | 0.0 | 0.0 | 0.03 | 0.03 | 0.03 | 81 | 1012.4 |
| 20260502033604 | 62 | 153 | 0.0 | 0.0 | 0.03 | 0.03 | 0.03 | 81 | 1012.4 |
| 20260502033104 | 63 | 146 | 0.0 | 0.0 | 0.03 | 0.03 | 0.03 | 80 | 1012.3 |
| 20260502033024 | 63 | 143 | 0.0 | 0.0 | 0.03 | 0.03 | 0.03 | 79 | 1012.3 |
| 20260502032104 | 64 | 143 | 0.0 | 0.0 | 0.03 | 0.03 | 0.03 | 77 | 1012.2 |
| 20260502032024 | 64 | 143 | 0.0 | 0.0 | 0.03 | 0.03 | 0.03 | 77 | 1012.1 |
| 20260502031604 | 64 | 143 | 0.0 | 0.0 | 0.03 | 0.03 | 0.03 | 77 | 1012.1 |
| 20260502031104 | 65 | 127 | 0.0 | 0.0 | 0.03 | 0.03 | 0.03 | 75 | 1012.2 |
| 20260502031021 | 66 | 122 | 0.0 | 0.0 | 0.03 | 0.03 | 0.03 | 75 | 1012.1 |
| 20260502030604 | 66 | 122 | 0.0 | 0.0 | 0.03 | 0.03 | 0.03 | 75 | 1012.1 |
| 20260502030104 | 66 | 101 | 0.0 | 0.0 | 0.03 | 0.03 | 0.03 | 71 | 1012.0 |
| 20260502030024 | 67 | 72 | 0.0 | 5.0 | 0.02 | 0.02 | 0.02 | 69 | 1011.6 |
| 20260502025604 | 67 | 72 | 0.0 | 5.0 | 0.02 | 0.02 | 0.02 | 69 | 1011.6 |
| 20260502025104 | 68 | 39 | 1.0 | 5.0 | 0.01 | 0.01 | 0.01 | 66 | 1011.3 |
| 20260502025023 | 69 | 43 | 1.0 | 5.0 | 0.00 | 0.00 | 0.00 | 66 | 1011.5 |
| 20260502024605 | 69 | 43 | 1.0 | 5.0 | 0.00 | 0.00 | 0.00 | 66 | 1011.5 |
| 20260502024106 | 69 | 350 | 0.0 | 7.0 | 0.00 | 0.00 | 0.00 | 61 | 1011.4 |
| 20260502024021 | 70 | 342 | 5.0 | 10.0 | 0.00 | 0.00 | 0.00 | 53 | 1011.5 |
| 20260502023604 | 70 | 342 | 5.0 | 10.0 | 0.00 | 0.00 | 0.00 | 53 | 1011.5 |
| 20260502023106 | 71 | 21 | 3.0 | 10.0 | 0.00 | 0.00 | 0.00 | 52 | 1011.5 |
| 20260502023023 | 72 | 34 | 1.0 | 14.0 | 0.00 | 0.00 | 0.00 | 52 | 1011.1 |
| 20260502022104 | 72 | 40 | 3.0 | 10.0 | 0.00 | 0.00 | 0.00 | 52 | 1010.8 |
| 20260502022022 | 73 | 6 | 6.0 | 12.0 | 0.00 | 0.00 | 0.00 | 51 | 1010.8 |
| 20260502021604 | 73 | 6 | 6.0 | 12.0 | 0.00 | 0.00 | 0.00 | 51 | 1010.8 |
| 20260502021106 | 73 | 24 | 2.0 | 8.0 | 0.00 | 0.00 | 0.00 | 52 | 1010.4 |
| 20260502021021 | 74 | 345 | 4.0 | 10.0 | 0.00 | 0.00 | 0.00 | 51 | 1010.3 |
| 20260502020604 | 74 | 345 | 4.0 | 10.0 | 0.00 | 0.00 | 0.00 | 51 | 1010.3 |
| 20260502020105 | 74 | 8 | 3.0 | 9.0 | 0.00 | 0.00 | 0.00 | 51 | 1010.3 |
| 20260502020025 | 74 | 355 | 4.0 | 9.0 | 0.00 | 0.00 | 0.00 | 50 | 1010.2 |
| 20260502015604 | 74 | 355 | 4.0 | 9.0 | 0.00 | 0.00 | 0.00 | 50 | 1010.2 |
| 20260502015105 | 75 | 343 | 2.0 | 6.0 | 0.00 | 0.00 | 0.00 | 51 | 1010.2 |
| 20260502015021 | 75 | 288 | 0.0 | 2.0 | 0.00 | 0.00 | 0.00 | 51 | 1010.3 |
| 20260502014604 | 75 | 288 | 0.0 | 2.0 | 0.00 | 0.00 | 0.00 | 51 | 1010.3 |
| 20260502014104 | 75 | 277 | 1.0 | 8.0 | 0.00 | 0.00 | 0.00 | 49 | 1010.1 |
| 20260502014025 | 76 | 319 | 2.0 | 8.0 | 0.00 | 0.00 | 0.00 | 50 | 1010.2 |
| 20260502013604 | 76 | 319 | 2.0 | 8.0 | 0.00 | 0.00 | 0.00 | 50 | 1010.2 |
| 20260502013104 | 76 | 325 | 1.0 | 5.0 | 0.00 | 0.00 | 0.00 | 50 | 1010.1 |
| 20260502013023 | 76 | 349 | 2.0 | 8.0 | 0.00 | 0.00 | 0.00 | 49 | 1010.0 |
| 20260502012604 | 76 | 349 | 2.0 | 8.0 | 0.00 | 0.00 | 0.00 | 49 | 1010.0 |
| 20260502012104 | 76 | 348 | 3.0 | 5.0 | 0.00 | 0.00 | 0.00 | 48 | 1010.0 |
| 20260502012021 | 77 | 347 | 2.0 | 7.0 | 0.00 | 0.00 | 0.00 | 48 | 1009.9 |
| 20260502011604 | 77 | 347 | 2.0 | 7.0 | 0.00 | 0.00 | 0.00 | 48 | 1009.9 |
| 20260502011105 | 77 | 359 | 4.0 | 9.0 | 0.00 | 0.00 | 0.00 | 47 | 1009.8 |
| 20260502011022 | 77 | 347 | 1.0 | 8.0 | 0.00 | 0.00 | 0.00 | 48 | 1009.8 |
| 20260502010604 | 77 | 347 | 1.0 | 8.0 | 0.00 | 0.00 | 0.00 | 48 | 1009.8 |
| 20260502010104 | 77 | 341 | 2.0 | 5.0 | 0.00 | 0.00 | 0.00 | 48 | 1009.8 |
| 20260502010023 | 77 | 345 | 1.0 | 3.0 | 0.00 | 0.00 | 0.00 | 50 | 1009.8 |
| 20260502005606 | 77 | 345 | 1.0 | 3.0 | 0.00 | 0.00 | 0.00 | 50 | 1009.8 |
| 20260502005104 | 77 | 17 | 4.0 | 10.0 | 0.00 | 0.00 | 0.00 | 47 | 1009.8 |
| 20260502004604 | 77 | 358 | 3.0 | 8.0 | 0.00 | 0.00 | 0.00 | 47 | 1009.8 |
| 20260502003605 | 78 | 358 | 1.0 | 2.0 | 0.00 | 0.00 | 0.00 | 47 | 1009.7 |
| 20260502003105 | 78 | 320 | 2.0 | 3.0 | 0.00 | 0.00 | 0.00 | 47 | 1009.7 |
| 20260502003025 | 78 | 326 | 1.0 | 5.0 | 0.00 | 0.00 | 0.00 | 46 | 1009.6 |
| 20260502002604 | 78 | 326 | 1.0 | 5.0 | 0.00 | 0.00 | 0.00 | 46 | 1009.6 |
| 20260502002104 | 78 | 342 | 1.0 | 5.0 | 0.00 | 0.00 | 0.00 | 45 | 1009.6 |
| 20260502002022 | 78 | 353 | 2.0 | 7.0 | 0.00 | 0.00 | 0.00 | 44 | 1009.6 |
| 20260502001604 | 78 | 353 | 2.0 | 7.0 | 0.00 | 0.00 | 0.00 | 44 | 1009.6 |
| 20260502001106 | 78 | 336 | 3.0 | 9.0 | 0.00 | 0.00 | 0.00 | 44 | 1009.5 |
| 20260502001021 | 79 | 334 | 2.0 | 8.0 | 0.00 | 0.00 | 0.00 | 44 | 1009.5 |
| 20260502000104 | 78 | 316 | 1.0 | 8.0 | 0.00 | 0.00 | 0.00 | 45 | 1009.5 |
| 20260502000025 | 79 | 333 | 2.0 | 9.0 | 0.00 | 0.00 | 0.00 | 42 | 1009.5 |
| 20260501235604 | 79 | 333 | 2.0 | 9.0 | 0.00 | 0.00 | 0.00 | 42 | 1009.5 |
| 20260501235104 | 79 | 316 | 2.0 | 8.0 | 0.00 | 0.00 | 0.00 | 43 | 1009.5 |
| 20260501235021 | 80 | 306 | 2.0 | 7.0 | 0.00 | 0.00 | 0.00 | 43 | 1009.5 |
| 20260501234604 | 80 | 306 | 2.0 | 7.0 | 0.00 | 0.00 | 0.00 | 43 | 1009.5 |
| 20260501234104 | 80 | 300 | 2.0 | 7.0 | 0.00 | 0.00 | 0.00 | 42 | 1009.5 |
| 20260501234023 | 80 | 337 | 4.0 | 10.0 | 0.00 | 0.00 | 0.00 | 42 | 1009.5 |
| 20260501233604 | 80 | 337 | 4.0 | 10.0 | 0.00 | 0.00 | 0.00 | 42 | 1009.5 |
| 20260501233023 | 80 | 2 | 6.0 | 12.0 | 0.00 | 0.00 | 0.00 | 40 | 1009.6 |
| 20260501232604 | 80 | 2 | 6.0 | 12.0 | 0.00 | 0.00 | 0.00 | 40 | 1009.6 |
| 20260501232106 | 81 | 348 | 3.0 | 12.0 | 0.00 | 0.00 | 0.00 | 41 | 1009.6 |
| 20260501232023 | 81 | 14 | 5.0 | 9.0 | 0.00 | 0.00 | 0.00 | 40 | 1009.7 |
| 20260501231604 | 81 | 14 | 5.0 | 9.0 | 0.00 | 0.00 | 0.00 | 40 | 1009.7 |
| 20260501231106 | 81 | 1 | 1.0 | 9.0 | 0.00 | 0.00 | 0.00 | 41 | 1009.7 |
| 20260501231022 | 81 | 350 | 2.0 | 10.0 | 0.00 | 0.00 | 0.00 | 42 | 1009.8 |
| 20260501230604 | 81 | 350 | 2.0 | 10.0 | 0.00 | 0.00 | 0.00 | 42 | 1009.8 |
| 20260501230104 | 81 | 343 | 3.0 | 8.0 | 0.00 | 0.00 | 0.00 | 42 | 1010.0 |
| 20260501230023 | 81 | 336 | 4.0 | 9.0 | 0.00 | 0.00 | 0.00 | 40 | 1010.0 |
| 20260501225604 | 81 | 336 | 4.0 | 9.0 | 0.00 | 0.00 | 0.00 | 40 | 1010.0 |
| 20260501225106 | 81 | 355 | 3.0 | 12.0 | 0.00 | 0.00 | 0.00 | 40 | 1010.2 |
| 20260501225021 | 81 | 2 | 3.0 | 10.0 | 0.00 | 0.00 | 0.00 | 40 | 1010.2 |
| 20260501224605 | 81 | 2 | 3.0 | 10.0 | 0.00 | 0.00 | 0.00 | 40 | 1010.2 |